[Date Prev][Date Next][Thread Prev][Thread Next] - [Date Index][Thread Index][Author Index]
2 Line ISS Keps 11-4
- Subject: [sarex] 2 Line ISS Keps 11-4
- From: "Dave Larsen Ph.D." <doc@xxxxxxxxxxx>
- Date: Mon, 4 Nov 2002 01:29:10 -0800
ISS
1 25544U 98067A 02308.14064815 .00048747 00000-0 63867-3 0 3359
2 25544 51.6392 70.2511 0014481 101.3348 254.4034 15.57965107225795
----
Via the sarex mailing list at AMSAT.ORG courtesy of AMSAT-NA.
To unsubscribe, send "unsubscribe sarex" to Majordomo@amsat.org
AMSAT Home